DRGN04 YWLM-YAMB

Flight info

Callsign DRGN04
Flight time N/A
Altitude 40000
Route UDISI DCT YCFS DCT BIGIX
Aircraft A332/H-SADE1E2E3GHIJ3J5M1P2RWXY/LB2D1

Departure

Time N/A
Airport Newcastle Airport (YWLM)

Arrival

Time 2026-05-01 13:51
Airport RAAF Base Amberley (YAMB)
Time Latitude Longitude Altitude Speed Heading
2026-05-01 13:07 -31.27042 153.07655 21009 ft 460 kts 12°
2026-05-01 13:07 -31.23944 153.08408 21005 ft 460 kts 12°
2026-05-01 13:07 -31.20814 153.09169 21007 ft 460 kts 12°
2026-05-01 13:08 -31.17674 153.09932 21003 ft 460 kts 12°
2026-05-01 13:08 -31.14540 153.10692 21002 ft 460 kts 12°
2026-05-01 13:08 -31.11398 153.11453 21006 ft 460 kts 12°
2026-05-01 13:08 -31.08265 153.12211 21007 ft 460 kts 12°
2026-05-01 13:09 -31.05125 153.12970 21003 ft 461 kts 12°
2026-05-01 13:09 -31.01997 153.13725 21000 ft 461 kts 12°
2026-05-01 13:09 -30.98846 153.14483 21003 ft 461 kts 12°
2026-05-01 13:09 -30.95702 153.15238 21003 ft 461 kts 12°
2026-05-01 13:10 -30.92597 153.15984 20998 ft 461 kts 12°
2026-05-01 13:10 -30.89447 153.16738 20997 ft 461 kts 12°
2026-05-01 13:10 -30.86309 153.17490 20997 ft 461 kts 12°
2026-05-01 13:10 -30.83156 153.18243 20995 ft 461 kts 12°
2026-05-01 13:11 -30.80000 153.18995 20996 ft 462 kts 12°
2026-05-01 13:11 -30.76851 153.19744 20999 ft 462 kts 12°
2026-05-01 13:11 -30.73695 153.20493 20995 ft 462 kts 12°
2026-05-01 13:11 -30.70558 153.21065 20996 ft 463 kts
2026-05-01 13:12 -30.67348 153.20926 20998 ft 463 kts 352°
2026-05-01 13:12 -30.64187 153.20163 20998 ft 463 kts 347°
2026-05-01 13:12 -30.61053 153.19302 21001 ft 463 kts 346°
2026-05-01 13:12 -30.57919 153.18440 21003 ft 463 kts 347°
2026-05-01 13:13 -30.54786 153.17583 21008 ft 462 kts 345°
2026-05-01 13:13 -30.51730 153.16372 21007 ft 462 kts 340°
2026-05-01 13:13 -30.48675 153.15200 21010 ft 462 kts 342°
2026-05-01 13:13 -30.45638 153.14107 21013 ft 462 kts 345°
2026-05-01 13:14 -30.42439 153.13425 21014 ft 462 kts 351°
2026-05-01 13:14 -30.39302 153.12885 21015 ft 462 kts 351°
2026-05-01 13:14 -30.36123 153.12339 21016 ft 462 kts 351°
2026-05-01 13:14 -30.32947 153.11790 21016 ft 462 kts 351°
2026-05-01 13:15 -30.29789 153.11108 21015 ft 461 kts 348°
2026-05-01 13:15 -30.26653 153.10351 21016 ft 461 kts 348°
2026-05-01 13:15 -30.23514 153.09598 21014 ft 461 kts 348°
2026-05-01 13:15 -30.20369 153.08844 21014 ft 461 kts 348°
2026-05-01 13:16 -30.17233 153.08094 21010 ft 461 kts 348°
2026-05-01 13:16 -30.14087 153.07343 21008 ft 461 kts 348°
2026-05-01 13:16 -30.10945 153.06594 21004 ft 461 kts 348°
2026-05-01 13:17 -30.01533 153.04351 20995 ft 460 kts 348°
2026-05-01 13:17 -29.98398 153.03605 20987 ft 460 kts 348°
2026-05-01 13:18 -29.92123 153.02114 20986 ft 460 kts 348°
2026-05-01 13:18 -29.89014 153.01376 20986 ft 460 kts 348°
2026-05-01 13:18 -29.85891 153.00634 20989 ft 460 kts 348°
2026-05-01 13:18 -29.82753 152.99890 20982 ft 460 kts 348°
2026-05-01 13:19 -29.79613 152.99146 20983 ft 459 kts 348°
2026-05-01 13:19 -29.76480 152.98404 20980 ft 459 kts 348°
2026-05-01 13:19 -29.70217 152.96922 20979 ft 459 kts 348°
2026-05-01 13:20 -29.67095 152.96184 20979 ft 459 kts 348°
2026-05-01 13:20 -29.63959 152.95443 20982 ft 459 kts 348°
2026-05-01 13:20 -29.60828 152.94704 20984 ft 459 kts 348°
2026-05-01 13:21 -29.54575 152.93229 20982 ft 459 kts 348°
2026-05-01 13:21 -29.51446 152.92491 20979 ft 459 kts 348°
2026-05-01 13:21 -29.48318 152.91755 20976 ft 459 kts 348°
2026-05-01 13:21 -29.45178 152.91016 20978 ft 459 kts 348°
2026-05-01 13:22 -29.43119 152.90532 20977 ft 459 kts 348°
2026-05-01 13:22 -29.39983 152.89794 20974 ft 459 kts 348°
2026-05-01 13:22 -29.36860 152.89060 20974 ft 459 kts 348°
2026-05-01 13:22 -29.33728 152.88325 20975 ft 459 kts 348°
2026-05-01 13:23 -29.30601 152.87591 20973 ft 459 kts 348°
2026-05-01 13:23 -29.27477 152.86858 20974 ft 459 kts 348°
2026-05-01 13:23 -29.24348 152.86125 20972 ft 459 kts 348°
2026-05-01 13:23 -29.21224 152.85393 20972 ft 459 kts 348°
2026-05-01 13:24 -29.18089 152.84659 20972 ft 459 kts 348°
2026-05-01 13:24 -29.14958 152.83927 20969 ft 459 kts 348°
2026-05-01 13:24 -29.11832 152.83197 20969 ft 459 kts 348°
2026-05-01 13:25 -29.05614 152.81772 20966 ft 451 kts 348°
2026-05-01 13:25 -29.02598 152.81080 20967 ft 433 kts 348°
2026-05-01 13:25 -28.99701 152.80415 20962 ft 415 kts 348°
2026-05-01 13:25 -28.96934 152.79776 20963 ft 398 kts 348°
2026-05-01 13:26 -28.94265 152.79160 20964 ft 382 kts 348°
2026-05-01 13:26 -28.91719 152.78573 20965 ft 367 kts 348°
2026-05-01 13:26 -28.89255 152.78005 20964 ft 352 kts 348°
2026-05-01 13:26 -28.86899 152.77461 20964 ft 338 kts 348°
2026-05-01 13:27 -28.84643 152.76940 20944 ft 325 kts 348°
2026-05-01 13:27 -28.82469 152.76437 20834 ft 315 kts 348°
2026-05-01 13:27 -28.78243 152.75455 20305 ft 308 kts 348°
2026-05-01 13:28 -28.74066 152.74477 19663 ft 304 kts 348°
2026-05-01 13:28 -28.72020 152.73993 19343 ft 303 kts 348°
2026-05-01 13:29 -28.68899 152.73250 18859 ft 301 kts 348°
2026-05-01 13:29 -28.65769 152.72500 18335 ft 298 kts 348°
2026-05-01 13:30 -28.57737 152.70526 16891 ft 291 kts 348°
2026-05-01 13:31 -28.53829 152.69537 16183 ft 287 kts 348°
2026-05-01 13:31 -28.48044 152.68036 15169 ft 281 kts 348°
2026-05-01 13:32 -28.44270 152.67036 14983 ft 281 kts 348°
2026-05-01 13:33 -28.38559 152.65518 14982 ft 281 kts 348°
2026-05-01 13:33 -28.34746 152.64509 14983 ft 282 kts 348°
2026-05-01 13:34 -28.30925 152.63490 14962 ft 281 kts 348°
2026-05-01 13:34 -28.27107 152.62478 14978 ft 282 kts 348°
2026-05-01 13:35 -28.23317 152.61479 14963 ft 282 kts 348°
2026-05-01 13:35 -28.21395 152.60973 14967 ft 281 kts 348°
2026-05-01 13:35 -28.17598 152.59973 14679 ft 279 kts 348°
2026-05-01 13:36 -28.15710 152.59470 14353 ft 278 kts 348°
2026-05-01 13:36 -28.13832 152.58967 14012 ft 276 kts 348°
2026-05-01 13:36 -28.10121 152.57960 13259 ft 272 kts 348°
2026-05-01 13:37 -28.08287 152.57456 12872 ft 270 kts 348°
2026-05-01 13:37 -28.06471 152.56950 12293 ft 276 kts 348°
2026-05-01 13:37 -28.04575 152.56409 11614 ft 286 kts 348°
2026-05-01 13:37 -28.03920 152.56219 11370 ft 290 kts 348°
2026-05-01 13:38 -28.01109 152.55381 10365 ft 305 kts 348°
2026-05-01 13:38 -27.99020 152.54739 9583 ft 314 kts 348°
2026-05-01 13:38 -27.96907 152.54079 9010 ft 315 kts 348°
2026-05-01 13:39 -27.94797 152.53414 8487 ft 314 kts 348°
2026-05-01 13:39 -27.92697 152.52747 8011 ft 312 kts 348°
2026-05-01 13:39 -27.90617 152.52080 7509 ft 310 kts 348°
2026-05-01 13:39 -27.88553 152.51414 7025 ft 308 kts 348°
2026-05-01 13:40 -27.86504 152.50732 6531 ft 306 kts 348°
2026-05-01 13:40 -27.84479 152.50067 6031 ft 303 kts 348°
2026-05-01 13:40 -27.82517 152.49419 5875 ft 287 kts 348°
2026-05-01 13:40 -27.80647 152.48790 5735 ft 272 kts 348°
2026-05-01 13:41 -27.78883 152.48187 5602 ft 258 kts 348°
2026-05-01 13:41 -27.77204 152.47604 5465 ft 248 kts 348°
2026-05-01 13:41 -27.75572 152.47028 5190 ft 245 kts 348°
2026-05-01 13:41 -27.73941 152.46480 4852 ft 244 kts 351°
2026-05-01 13:42 -27.72290 152.46101 4523 ft 242 kts 355°
2026-05-01 13:42 -27.70637 152.45881 4225 ft 232 kts 12°
2026-05-01 13:42 -27.69239 152.46382 4135 ft 195 kts 31°
2026-05-01 13:42 -27.68036 152.46979 3693 ft 185 kts 31°
2026-05-01 13:43 -27.66866 152.47558 3184 ft 182 kts 32°
2026-05-01 13:43 -27.65689 152.48146 3092 ft 188 kts 31°
2026-05-01 13:43 -27.64494 152.48736 3188 ft 187 kts 31°
2026-05-01 13:43 -27.63338 152.49402 3269 ft 184 kts 41°
2026-05-01 13:44 -27.62305 152.50225 3335 ft 181 kts 42°
2026-05-01 13:44 -27.61286 152.51027 3294 ft 181 kts 43°
2026-05-01 13:44 -27.60247 152.51835 3040 ft 182 kts 42°
2026-05-01 13:44 -27.59205 152.52646 2987 ft 183 kts 42°
2026-05-01 13:45 -27.58156 152.53465 2987 ft 185 kts 41°
2026-05-01 13:45 -27.57096 152.54289 2981 ft 184 kts 41°
2026-05-01 13:45 -27.56047 152.55100 2981 ft 182 kts 41°
2026-05-01 13:45 -27.55003 152.55908 2987 ft 183 kts 41°
2026-05-01 13:46 -27.53948 152.56725 2985 ft 183 kts 41°
2026-05-01 13:46 -27.52916 152.57523 2983 ft 177 kts 41°
2026-05-01 13:46 -27.51903 152.58306 2985 ft 184 kts 41°
2026-05-01 13:46 -27.50831 152.59136 2984 ft 183 kts 42°
2026-05-01 13:47 -27.49793 152.59946 2985 ft 184 kts 42°
2026-05-01 13:47 -27.48744 152.60766 2980 ft 183 kts 41°
2026-05-01 13:47 -27.47839 152.61709 2951 ft 172 kts 67°
2026-05-01 13:47 -27.47726 152.62979 2905 ft 166 kts 106°
2026-05-01 13:48 -27.48327 152.64075 2839 ft 167 kts 134°
2026-05-01 13:48 -27.49295 152.64813 2743 ft 169 kts 148°
2026-05-01 13:48 -27.50370 152.65349 2534 ft 169 kts 154°
2026-05-01 13:48 -27.51470 152.65822 2344 ft 169 kts 154°
2026-05-01 13:49 -27.52559 152.66303 2136 ft 168 kts 155°
2026-05-01 13:49 -27.53650 152.66781 1895 ft 169 kts 155°
2026-05-01 13:49 -27.54753 152.67265 1681 ft 169 kts 155°
2026-05-01 13:49 -27.55857 152.67751 1454 ft 171 kts 156°
2026-05-01 13:50 -27.56971 152.68239 1226 ft 174 kts 157°
2026-05-01 13:50 -27.58112 152.68741 996 ft 177 kts 158°
2026-05-01 13:50 -27.59250 152.69239 752 ft 178 kts 159°
2026-05-01 13:50 -27.60403 152.69745 521 ft 177 kts 159°
2026-05-01 13:51 -27.61551 152.70249 288 ft 177 kts 159°
2026-05-01 13:51 -27.62685 152.70746 105 ft 169 kts 159°
2026-05-01 13:51 -27.63410 152.71062 103 ft 53 kts 159°
2026-05-01 13:51 -27.63495 152.71097 104 ft 0 kts 160°
2026-05-01 13:52 -27.63495 152.71096 104 ft 1 kts 160°
2026-05-01 13:52 -27.63508 152.71102 106 ft 3 kts 159°
2026-05-01 13:52 -27.63541 152.71117 105 ft 7 kts 157°
2026-05-01 13:53 -27.63594 152.71141 105 ft 10 kts 158°
2026-05-01 13:53 -27.63736 152.71207 108 ft 12 kts 158°
2026-05-01 13:53 -27.63820 152.71244 108 ft 14 kts 158°
2026-05-01 13:54 -27.63923 152.71289 107 ft 18 kts 159°
2026-05-01 13:54 -27.64045 152.71340 107 ft 19 kts 163°
2026-05-01 13:54 -27.64143 152.71286 109 ft 16 kts 231°
2026-05-01 13:54 -27.64152 152.71187 107 ft 10 kts 317°
2026-05-01 13:55 -27.64076 152.71145 108 ft 14 kts 338°
2026-05-01 13:55 -27.63976 152.71100 108 ft 17 kts 338°
2026-05-01 13:55 -27.63853 152.71045 107 ft 21 kts 340°
2026-05-01 13:55 -27.63700 152.70983 105 ft 25 kts 339°
2026-05-01 13:56 -27.63530 152.70907 105 ft 28 kts 338°
2026-05-01 13:56 -27.63344 152.70823 107 ft 29 kts 339°
2026-05-01 13:56 -27.63158 152.70743 104 ft 28 kts 339°
2026-05-01 13:56 -27.62980 152.70664 106 ft 21 kts 338°
2026-05-01 13:57 -27.62840 152.70603 105 ft 23 kts 339°
2026-05-01 13:57 -27.62734 152.70558 105 ft 23 kts 339°
2026-05-01 13:57 -27.62548 152.70460 104 ft 4 kts 302°
2026-05-01 13:57 -27.62550 152.70436 104 ft 6 kts 266°
2026-05-01 13:58 -27.62538 152.70388 105 ft 0 kts 295°
2026-05-01 13:58 -27.62531 152.70380 102 ft 2 kts 314°
2026-05-01 13:58 -27.62515 152.70376 104 ft 4 kts 338°
2026-05-01 13:58 -27.62493 152.70366 102 ft 0 kts 339°